• Processing (Info)

  • MPEC 1994-Q07 : 1994 PN

    The following Minor Planet Electronic Circular may be linked-to from your own Web pages, but must not otherwise be redistributed electronically.

    A form allowing access to any MPEC is at the bottom of this page.


    Read MPEC 1994-Q06 Read MPEC 1994-Q08


    M.P.E.C. 1994-Q07                                Issued 1994 Aug. 27, 16:18 UT
    
         The Minor Planet Electronic Circulars contain information on unusual
             minor planets and routine data on comets.  They are published
       on behalf of Commission 20 of the International Astronomical Union by the
              Minor Planet Center, Smithsonian Astrophysical Observatory,
                              Cambridge, MA 02138, U.S.A.
    
              MARSDEN@CFA or WILLIAMS@CFA (.HARVARD.EDU, .SPAN or .BITNET)
    
                                        1994 PN
    
    Additional observations:
         J94P00N  C1994 08 15.37983 15 53 38.20 -08 17 45.0                      413
         J94P00N IC1994 08 15.38169 15 53 38.15 -08 17 51.6                      413
         J94P00N  C1994 08 16.37431 15 53 32.52 -09 14 17.8                      413
         J94P00N  C1994 08 16.37617 15 53 32.50 -09 14 24.1                      413
         J94P00N  C1994 08 16.51904 15 53 31.46 -09 22 29.8                      413
         J94P00N  C1994 08 16.52088 15 53 31.46 -09 22 36.1                      413
         J94P00N  C1994 08 17.38569 15 53 29.44 -10 11 36.6                      413
         J94P00N  C1994 08 17.38826 15 53 29.44 -10 11 45.1                      413
         J94P00N  C1994 08 26.40177 15 55 02.91 -18 30 34.2                      413
         J94P00N  C1994 08 26.40436 15 55 02.96 -18 30 42.6                      413
         J94P00N  C1994 08 26.48802 15 55 04.70 -18 35 23.5          17.8 V      360
         J94P00N  C1994 08 26.49097 15 55 04.81 -18 35 32.8                      360
         J94P00N  C1994 08 27.38204 15 55 25.86 -19 23 17.0                      413
         J94P00N  C1994 08 27.38468 15 55 25.92 -19 23 25.4                      413
    
    Observer details:
    360 Kuma Kogen.  Observer A. Nakamura.  0.60-m f/6.0 Ritchey-Chretien.
    413 Siding Spring Observatory.  Observers G. J. Garradd, R. H. McNaught.
        1.0-m reflector.
    
    Orbital elements:
    1994 PN
    Epoch 1994 Aug. 16.0 TT = JDT 2449580.5                 Marsden
    M 341.47506              (2000.0)            P               Q
    n   0.26999663     Peri.  233.95735     +0.74814078     +0.05599910
    a   2.3708122      Node   113.26079     -0.06106965     +0.99801430
    e   0.5393169      Incl.   46.02723     -0.66072375     -0.02883682
    P   3.65           H    15.5          G   0.15
    From 18 observations 1994 Aug. 7-27.
    
    Ephemeris:
    1994 PN                  a,e,i = 2.37, 0.54, 46                  q = 1.0922
    Date    TT    R. A. (2000) Decl.     Delta      r     Elong.  Phase     V
    1994 08 26    15 54.91   -18 08.9    0.843    1.291    87.8    51.5    17.6
    1994 08 31    15 57.19   -22 34.8    0.862    1.262    84.4    52.8    17.6
    1994 09 05    16 00.52   -26 51.3    0.883    1.235    81.2    53.8    17.7
    1994 09 10    16 04.89   -30 58.0    0.904    1.209    78.3    54.6    17.7
    1994 09 15    16 10.32   -34 55.0    0.927    1.185    75.6    55.2    17.7
    1994 09 20    16 16.81   -38 42.3    0.948    1.164    73.1    55.7    17.7
    1994 09 25    16 24.46   -42 20.4    0.970    1.145    70.9    55.9    17.8
    1994 09 30    16 33.39   -45 49.5    0.990    1.129    69.0    56.0    17.8
    1994 10 05    16 43.80   -49 09.8    1.008    1.115    67.4    55.9    17.8
    1994 10 10    16 55.92   -52 21.5    1.025    1.104    66.1    55.8    17.8
    1994 10 15    17 10.11   -55 24.2    1.040    1.097    65.1    55.6    17.8
    1994 10 20    17 26.80   -58 17.2    1.052    1.093    64.5    55.3    17.8
    1994 10 25    17 46.60   -60 59.1    1.062    1.092    64.1    55.0    17.8
    1994 10 30    18 10.25   -63 27.4    1.069    1.095    64.0    54.6    17.8
    1994 11 04    18 38.61   -65 38.6    1.074    1.101    64.2    54.2    17.8
    1994 11 09    19 12.40   -67 27.3    1.077    1.110    64.8    53.8    17.9
    1994 11 14    19 51.91   -68 46.3    1.078    1.122    65.6    53.4    17.9
    1994 11 19    20 36.38   -69 27.6    1.078    1.137    66.6    52.9    17.9
    1994 11 24    21 23.69   -69 24.0    1.077    1.155    67.9    52.4    17.9
    1994 11 29    22 10.71   -68 31.6    1.075    1.175    69.4    51.8    17.9
    1994 12 04    22 54.48   -66 51.3    1.073    1.198    71.0    51.1    17.9
    1994 12 09    23 33.24   -64 28.2    1.073    1.223    72.8    50.3    18.0
    1994 12 14    00 06.58   -61 29.1    1.074    1.250    74.6    49.4    18.0
    1994 12 19    00 34.94   -58 00.9    1.079    1.278    76.4    48.5    18.0
    1994 12 24    00 59.13   -54 10.0    1.087    1.307    78.2    47.4    18.1
    1994 12 29    01 19.98   -50 02.3    1.099    1.338    79.8    46.3    18.1
    1995 01 03    01 38.22   -45 43.3    1.116    1.370    81.2    45.2    18.1
    1995 01 08    01 54.45   -41 18.0    1.139    1.403    82.4    44.0    18.2
    1995 01 13    02 09.09   -36 51.4    1.168    1.437    83.3    42.8    18.3
    1995 01 18    02 22.52   -32 27.4    1.203    1.471    83.9    41.7    18.4
    1995 01 23    02 34.98   -28 09.7    1.244    1.506    84.2    40.6    18.5
    1995 01 28    02 46.71   -24 01.2    1.292    1.541    84.0    39.5    18.6
    1995 02 02    02 57.86   -20 03.9    1.345    1.576    83.6    38.4    18.7
    1995 02 07    03 08.56   -16 19.4    1.404    1.612    82.8    37.4    18.8
    1995 02 12    03 18.91   -12 48.7    1.469    1.648    81.7    36.4    18.9
    1995 02 17    03 28.97   -09 32.0    1.538    1.683    80.4    35.4    19.0
    1995 02 22    03 38.81   -06 29.3    1.610    1.719    78.8    34.4    19.1
    1995 02 27    03 48.48   -03 40.0    1.687    1.755    77.1    33.4    19.3
    1995 03 04    03 58.02   -01 03.7    1.767    1.790    75.1    32.4    19.4
    1995 03 09    04 07.46   +01 20.3    1.849    1.826    73.1    31.3    19.5
    1995 03 14    04 16.81   +03 32.8    1.933    1.861    70.9    30.3    19.6
    1995 03 19    04 26.09   +05 34.5    2.018    1.896    68.6    29.2    19.7
    1995 03 24    04 35.32   +07 26.3    2.105    1.931    66.2    28.2    19.8
    
    Brian G. Marsden                                              M.P.E.C. 1994-Q07
    

    Read MPEC 1994-Q06 Read MPEC 1994-Q08


    MPEC number:

    Enter an MPEC number in one of the following forms:

    • 1997-B01 (the full form)
    • J97B01 (the packed version of the full form)
    • B01 (the abbreviated form)